| time (UTC) | temp C | wind direction | speed KPH | gust KPH | rain 1hr cm | rain 24hr cm | rain mn cm | humidity % | barometer mb |
| 20260508181510 | 16 | 64 | 1.6 | 6.4 | 0.00 | 0.00 | 0.00 | 63 | 1015.6 |
| 20260508180013 | 16 | 40 | 1.6 | 6.4 | 0.00 | 0.00 | 0.00 | 62 | 1015.6 |
| 20260508174508 | 16 | 82 | 0.0 | 3.2 | 0.00 | 0.00 | 0.00 | 62 | 1015.5 |
| 20260508173007 | 17 | 90 | 0.0 | 4.8 | 0.00 | 0.00 | 0.00 | 62 | 1015.3 |
| 20260508171508 | 17 | 109 | 0.0 | 3.2 | 0.00 | 0.00 | 0.00 | 61 | 1015.1 |
| 20260508170007 | 17 | 36 | 0.0 | 6.4 | 0.00 | 0.00 | 0.00 | 61 | 1015.1 |
| 20260508164511 | 18 | 85 | 1.6 | 8.0 | 0.00 | 0.00 | 0.00 | 59 | 1015.1 |
| 20260508163010 | 18 | 76 | 0.0 | 3.2 | 0.00 | 0.00 | 0.00 | 59 | 1015.0 |
| 20260508161510 | 18 | 80 | 0.0 | 6.4 | 0.00 | 0.00 | 0.00 | 58 | 1014.9 |
| 20260508160006 | 18 | 86 | 0.0 | 4.8 | 0.00 | 0.00 | 0.00 | 58 | 1015.0 |
| 20260508154504 | 18 | 77 | 1.6 | 4.8 | 0.00 | 0.00 | 0.00 | 58 | 1015.1 |
| 20260508153003 | 19 | 97 | 0.0 | 6.4 | 0.00 | 0.00 | 0.00 | 57 | 1015.1 |
| 20260508151501 | 20 | 83 | 0.0 | 3.2 | 0.00 | 0.00 | 0.00 | 55 | 1015.3 |
| 20260508150100 | 18 | 87 | 0.0 | 3.2 | 0.00 | 0.00 | 0.00 | 58 | 1015.3 |
| 20260508144609 | 18 | 85 | 0.0 | 3.2 | 0.00 | 0.00 | 0.00 | 59 | 1015.5 |
| 20260508143105 | 20 | 72 | 0.0 | 4.8 | 0.00 | 0.00 | 0.00 | 54 | 1015.6 |
| 20260508141604 | 20 | 280 | 0.0 | 3.2 | 0.00 | 0.00 | 0.00 | 55 | 1015.7 |
| 20260508140053 | 18 | 174 | 0.0 | 3.2 | 0.00 | 0.00 | 0.00 | 55 | 1015.9 |
| 20260508134616 | 18 | 96 | 0.0 | 1.6 | 0.00 | 0.00 | 0.00 | 56 | 1016.1 |
| 20260508133058 | 20 | 346 | 0.0 | 3.2 | 0.00 | 0.00 | 0.00 | 53 | 1016.1 |
| 20260508131551 | 19 | 253 | 0.0 | 3.2 | 0.00 | 0.00 | 0.00 | 52 | 1016.2 |
| 20260508130047 | 19 | 67 | 0.0 | 3.2 | 0.00 | 0.00 | 0.00 | 58 | 1016.3 |
| 20260508124544 | 18 | 68 | 0.0 | 4.8 | 0.00 | 0.03 | 0.00 | 62 | 1016.4 |
| 20260508123049 | 18 | 49 | 1.6 | 4.8 | 0.00 | 0.03 | 0.00 | 58 | 1016.6 |
| 20260508121546 | 18 | 242 | 0.0 | 3.2 | 0.00 | 0.03 | 0.00 | 57 | 1016.6 |
| 20260508120042 | 17 | 33 | 0.0 | 4.8 | 0.00 | 0.03 | 0.00 | 62 | 1016.7 |
| 20260508114541 | 18 | 57 | 0.0 | 3.2 | 0.00 | 0.03 | 0.00 | 56 | 1016.7 |
| 20260508113040 | 18 | 280 | 0.0 | 3.2 | 0.00 | 0.03 | 0.00 | 56 | 1016.8 |
| 20260508111539 | 18 | 78 | 0.0 | 3.2 | 0.00 | 0.03 | 0.00 | 60 | 1016.9 |
| 20260508110034 | 17 | 94 | 0.0 | 4.8 | 0.00 | 0.03 | 0.00 | 62 | 1016.9 |
| 20260508104534 | 17 | 105 | 0.0 | 4.8 | 0.00 | 0.03 | 0.00 | 64 | 1017.2 |
| 20260508103035 | 16 | 85 | 0.0 | 3.2 | 0.00 | 0.03 | 0.00 | 65 | 1017.2 |
| 20260508101534 | 16 | 80 | 0.0 | 1.6 | 0.00 | 0.03 | 0.00 | 63 | 1017.3 |
| 20260508100030 | 16 | 74 | 0.0 | 3.2 | 0.00 | 0.03 | 0.00 | 60 | 1017.4 |
| 20260508094528 | 16 | 50 | 1.6 | 4.8 | 0.00 | 0.03 | 0.00 | 66 | 1017.5 |
| 20260508093027 | 16 | 64 | 1.6 | 4.8 | 0.00 | 0.03 | 0.00 | 66 | 1017.6 |
| 20260508091525 | 16 | 88 | 0.0 | 4.8 | 0.00 | 0.03 | 0.00 | 70 | 1017.6 |
| 20260508090039 | 15 | 86 | 0.0 | 4.8 | 0.00 | 0.03 | 0.00 | 72 | 1017.6 |
| 20260508084519 | 15 | 84 | 0.0 | 4.8 | 0.00 | 0.05 | 0.00 | 74 | 1017.6 |
| 20260508083020 | 14 | 30 | 1.6 | 6.4 | 0.00 | 0.05 | 0.00 | 73 | 1017.6 |
| 20260508081514 | 13 | 81 | 0.0 | 4.8 | 0.00 | 0.05 | 0.00 | 75 | 1017.7 |
| 20260508080013 | 13 | 94 | 0.0 | 4.8 | 0.00 | 0.05 | 0.00 | 76 | 1017.7 |
| 20260508074512 | 13 | 99 | 0.0 | 3.2 | 0.00 | 0.15 | 0.00 | 77 | 1017.7 |
| 20260508073009 | 12 | 76 | 0.0 | 3.2 | 0.00 | 0.15 | 0.00 | 78 | 1017.7 |
| 20260508071508 | 12 | 75 | 0.0 | 1.6 | 0.00 | 0.15 | 0.00 | 78 | 1017.7 |
| 20260508070003 | 11 | 75 | 0.0 | 1.6 | 0.00 | 0.15 | 0.00 | 81 | 1017.7 |
| 20260508064617 | 10 | 74 | 0.0 | 3.2 | 0.00 | 0.20 | 0.00 | 84 | 1017.8 |
| 20260508063107 | 9 | 69 | 0.0 | 1.6 | 0.00 | 0.20 | 0.00 | 87 | 1017.7 |
| 20260508061604 | 8 | 68 | 0.0 | 1.6 | 0.00 | 0.20 | 0.00 | 90 | 1017.6 |
| 20260508054546 | 6 | 72 | 0.0 | 0.0 | 0.00 | 0.23 | 0.00 | 93 | 1017.7 |
| 20260508053046 | 6 | 72 | 0.0 | 0.0 | 0.00 | 0.23 | 0.00 | 95 | 1017.7 |
| 20260508051603 | 5 | 72 | 0.0 | 0.0 | 0.00 | 0.23 | 0.00 | 95 | 1017.6 |
| 20260508050043 | 5 | 72 | 0.0 | 0.0 | 0.00 | 0.23 | 0.00 | 95 | 1017.5 |
| 20260508044548 | 4 | 72 | 0.0 | 0.0 | 0.00 | 0.23 | 0.00 | 95 | 1017.4 |
| 20260508043043 | 3 | 72 | 0.0 | 0.0 | 0.00 | 0.23 | 0.00 | 95 | 1017.4 |
| 20260508041542 | 3 | 72 | 0.0 | 0.0 | 0.00 | 0.23 | 0.00 | 95 | 1017.2 |
| 20260508040050 | 3 | 72 | 0.0 | 0.0 | 0.00 | 0.23 | 0.00 | 94 | 1017.1 |
| 20260508034548 | 3 | 72 | 0.0 | 0.0 | 0.00 | 0.23 | 0.00 | 94 | 1017.1 |
| 20260508033046 | 4 | 72 | 0.0 | 0.0 | 0.00 | 0.23 | 0.00 | 94 | 1017.0 |
| 20260508031544 | 4 | 72 | 0.0 | 0.0 | 0.00 | 0.23 | 0.00 | 94 | 1016.9 |
| 20260508030037 | 4 | 72 | 0.0 | 0.0 | 0.00 | 0.23 | 0.00 | 94 | 1016.8 |
| 20260508024559 | 5 | 72 | 0.0 | 0.0 | 0.00 | 0.25 | 0.00 | 94 | 1016.8 |
| 20260508023038 | 5 | 72 | 0.0 | 0.0 | 0.00 | 0.25 | 0.00 | 94 | 1016.9 |
| 20260508021537 | 5 | 72 | 0.0 | 0.0 | 0.00 | 0.25 | 0.00 | 94 | 1017.0 |
| 20260508020035 | 5 | 72 | 0.0 | 0.0 | 0.00 | 0.25 | 0.00 | 94 | 1016.9 |
| 20260508014536 | 5 | 72 | 0.0 | 0.0 | 0.00 | 0.25 | 0.00 | 94 | 1017.0 |
| 20260508013034 | 5 | 72 | 0.0 | 1.6 | 0.00 | 0.25 | 0.00 | 94 | 1016.9 |
| 20260508011532 | 5 | 72 | 0.0 | 0.0 | 0.00 | 0.25 | 0.00 | 94 | 1016.8 |
| 20260508010030 | 5 | 72 | 0.0 | 0.0 | 0.00 | 0.25 | 0.00 | 94 | 1016.9 |
| 20260508004541 | 5 | 72 | 0.0 | 3.2 | 0.00 | 0.25 | 0.00 | 94 | 1016.9 |
| 20260508003026 | 5 | 293 | 0.0 | 0.0 | 0.00 | 0.25 | 0.00 | 94 | 1017.1 |
| 20260508001534 | 5 | 293 | 0.0 | 0.0 | 0.00 | 0.25 | 0.00 | 94 | 1017.2 |
| 20260508000024 | 5 | 293 | 0.0 | 0.0 | 0.00 | 0.25 | 0.00 | 94 | 1017.3 |
| 20260507234523 | 5 | 293 | 0.0 | 0.0 | 0.00 | 0.25 | 0.00 | 93 | 1017.3 |
| 20260507233021 | 6 | 293 | 0.0 | 0.0 | 0.00 | 0.25 | 0.00 | 93 | 1017.4 |
| 20260507231522 | 6 | 293 | 0.0 | 0.0 | 0.00 | 0.25 | 0.00 | 93 | 1017.6 |
| 20260507230018 | 6 | 293 | 0.0 | 0.0 | 0.00 | 0.25 | 0.00 | 93 | 1017.6 |
| 20260507224519 | 6 | 293 | 0.0 | 0.0 | 0.00 | 0.28 | 0.00 | 93 | 1017.6 |
| 20260507223015 | 6 | 293 | 0.0 | 0.0 | 0.00 | 0.28 | 0.00 | 93 | 1017.5 |
| 20260507221514 | 7 | 293 | 0.0 | 0.0 | 0.00 | 0.28 | 0.00 | 92 | 1017.4 |
| 20260507220013 | 7 | 293 | 0.0 | 0.0 | 0.00 | 0.28 | 0.00 | 92 | 1017.4 |
| 20260507214509 | 7 | 293 | 0.0 | 0.0 | 0.00 | 0.28 | 0.28 | 92 | 1017.3 |
| 20260507213011 | 7 | 293 | 0.0 | 0.0 | 0.00 | 0.28 | 0.28 | 92 | 1017.4 |
| 20260507211507 | 7 | 293 | 0.0 | 0.0 | 0.00 | 0.28 | 0.28 | 91 | 1017.3 |
| 20260507210005 | 7 | 293 | 0.0 | 0.0 | 0.00 | 0.28 | 0.28 | 90 | 1017.3 |
| 20260507204503 | 8 | 293 | 0.0 | 0.0 | 0.00 | 0.28 | 0.28 | 89 | 1017.2 |
| 20260507203132 | 8 | 293 | 0.0 | 0.0 | 0.00 | 0.28 | 0.28 | 88 | 1017.2 |
| 20260507201556 | 9 | 273 | 0.0 | 0.0 | 0.00 | 0.28 | 0.28 | 87 | 1017.0 |
| 20260507200057 | 10 | 273 | 0.0 | 0.0 | 0.00 | 0.28 | 0.28 | 84 | 1016.9 |
| 20260507194609 | 10 | 273 | 0.0 | 0.0 | 0.00 | 0.28 | 0.28 | 82 | 1016.8 |
| 20260507193052 | 11 | 273 | 0.0 | 0.0 | 0.00 | 0.28 | 0.28 | 81 | 1016.6 |
| 20260507191551 | 11 | 273 | 0.0 | 0.0 | 0.00 | 0.28 | 0.28 | 80 | 1016.5 |
| 20260507190055 | 11 | 273 | 0.0 | 0.0 | 0.00 | 0.28 | 0.28 | 79 | 1016.4 |
| 20260507184550 | 11 | 273 | 0.0 | 0.0 | 0.00 | 0.30 | 0.28 | 78 | 1016.3 |
| 20260507183047 | 11 | 273 | 0.0 | 1.6 | 0.00 | 0.30 | 0.28 | 77 | 1016.2 |